Time,TemperatureF,DewpointF,PressureIn,WindDirection,WindDirectionDegrees,WindSpeedMPH,WindSpeedGustMPH,Humidity,HourlyPrecipIn,Conditions,Clouds,dailyrainin,SoftwareType,DateUTC
2013-05-12 00:03:00,-999.0,-99.9,29.70,SE,139,0.0,1.0,92,0.00,,,0.59,,2013-05-12 04:03:00,
2013-05-12 00:12:00,64.0,62.0,29.70,SE,139,0.0,1.0,92,0.00,,,0.59,,2013-05-12 04:12:00,
2013-05-12 00:22:00,64.0,62.0,29.70,SE,140,0.0,3.0,92,0.00,,,0.59,,2013-05-12 04:22:00,
2013-05-12 00:33:00,64.0,62.0,29.70,South,185,1.0,5.0,92,0.00,,,0.59,,2013-05-12 04:33:00,
2013-05-12 00:43:00,64.0,62.0,29.70,South,185,1.0,5.0,92,0.00,,,0.59,,2013-05-12 04:43:00,
2013-05-12 00:52:00,64.0,61.0,29.70,South,182,1.0,3.0,90,0.00,,,0.59,,2013-05-12 04:52:00,
2013-05-12 01:02:00,65.0,61.0,29.70,SSW,210,1.0,3.0,87,0.00,,,0.59,,2013-05-12 05:02:00,
2013-05-12 01:12:00,65.0,61.0,29.70,SSW,210,1.0,3.0,87,0.00,,,0.59,,2013-05-12 05:12:00,
2013-05-12 01:22:00,65.0,60.0,29.68,South,189,1.0,5.0,85,0.00,,,0.59,,2013-05-12 05:22:00,
2013-05-12 01:32:00,65.0,59.0,29.69,SSW,199,1.0,6.0,81,0.00,,,0.58,,2013-05-12 05:32:00,
2013-05-12 01:42:00,65.0,59.0,29.69,SSW,199,1.0,6.0,81,0.00,,,0.58,,2013-05-12 05:42:00,
2013-05-12 01:51:00,65.0,59.0,29.67,SSW,193,0.0,6.0,80,0.01,,,0.56,,2013-05-12 05:51:00,
2013-05-12 02:02:00,64.0,57.0,29.68,SSW,196,0.0,5.0,77,0.01,,,0.55,,2013-05-12 06:02:00,
2013-05-12 02:11:00,64.0,57.0,29.68,SSW,196,0.0,5.0,77,0.01,,,0.55,,2013-05-12 06:11:00,
2013-05-12 02:21:00,64.0,57.0,29.68,SSW,193,0.0,3.0,77,0.01,,,0.53,,2013-05-12 06:21:00,
2013-05-12 02:32:00,64.0,57.0,29.66,West,260,0.0,3.0,77,0.01,,,0.49,,2013-05-12 06:32:00,
2013-05-12 02:42:00,64.0,57.0,29.66,South,180,0.0,3.0,78,0.00,,,0.49,,2013-05-12 06:42:00,
2013-05-12 02:52:00,64.0,57.0,29.66,South,180,0.0,3.0,78,0.00,,,0.49,,2013-05-12 06:52:00,
2013-05-12 03:01:00,64.0,58.0,29.65,ENE,63,0.0,2.0,80,0.00,,,0.49,,2013-05-12 07:01:00,
2013-05-12 03:11:00,64.0,58.0,29.65,ENE,63,0.0,2.0,80,0.00,,,0.49,,2013-05-12 07:11:00,
2013-05-12 03:22:00,64.0,58.0,29.66,SSW,192,1.0,3.0,80,0.00,,,0.48,,2013-05-12 07:22:00,
2013-05-12 03:32:00,63.0,57.0,29.67,South,175,0.0,3.0,80,0.00,,,0.48,,2013-05-12 07:32:00,
2013-05-12 03:42:00,63.0,57.0,29.67,South,175,0.0,3.0,80,0.00,,,0.48,,2013-05-12 07:42:00,
2013-05-12 03:52:00,63.0,57.0,29.68,South,172,1.0,5.0,80,0.00,,,0.48,,2013-05-12 07:52:00,
2013-05-12 04:02:00,63.0,56.0,29.68,SSW,196,0.0,2.0,79,0.00,,,0.47,,2013-05-12 08:02:00,
2013-05-12 04:11:00,63.0,56.0,29.68,SSW,196,0.0,2.0,79,0.00,,,0.47,,2013-05-12 08:11:00,
2013-05-12 04:21:00,62.0,55.0,29.67,WSW,241,0.0,3.0,79,0.00,,,0.47,,2013-05-12 08:21:00,
2013-05-12 04:32:00,62.0,54.0,29.67,NW,324,0.0,3.0,76,0.00,,,0.47,,2013-05-12 08:32:00,
2013-05-12 04:42:00,62.0,54.0,29.67,NW,324,0.0,3.0,76,0.00,,,0.47,,2013-05-12 08:42:00,
2013-05-12 04:53:00,62.0,54.0,29.67,North,353,0.0,3.0,76,0.00,,,0.47,,2013-05-12 08:53:00,
2013-05-12 05:01:00,62.0,54.0,29.69,South,169,0.0,2.0,74,0.00,,,0.47,,2013-05-12 09:01:00,
2013-05-12 05:11:00,62.0,54.0,29.69,South,169,0.0,2.0,74,0.00,,,0.47,,2013-05-12 09:11:00,
2013-05-12 05:21:00,62.0,53.0,29.68,SSW,195,0.0,3.0,73,0.00,,,0.47,,2013-05-12 09:21:00,
2013-05-12 05:33:00,62.0,53.0,29.69,SW,235,0.0,1.0,72,0.00,,,0.47,,2013-05-12 09:33:00,
2013-05-12 05:43:00,62.0,53.0,29.69,SW,235,0.0,1.0,72,0.00,,,0.47,,2013-05-12 09:43:00,
2013-05-12 05:52:00,62.0,53.0,29.69,SSW,202,0.0,3.0,72,0.00,,,0.47,,2013-05-12 09:52:00,
2013-05-12 06:03:00,61.0,51.0,29.70,SSE,155,0.0,3.0,70,0.00,,,0.47,,2013-05-12 10:03:00,
2013-05-12 06:12:00,61.0,51.0,29.70,SSE,155,0.0,3.0,70,0.00,,,0.47,,2013-05-12 10:12:00,
2013-05-12 06:23:00,61.0,52.0,29.70,SW,231,0.0,3.0,72,0.00,,,0.47,,2013-05-12 10:23:00,
2013-05-12 06:33:00,60.0,52.0,29.70,NE,34,0.0,2.0,75,0.00,,,0.46,,2013-05-12 10:33:00,
2013-05-12 06:42:00,60.0,52.0,29.70,NE,34,0.0,2.0,75,0.00,,,0.46,,2013-05-12 10:42:00,
2013-05-12 06:52:00,60.0,52.0,29.70,SSW,202,1.0,3.0,74,0.00,,,0.46,,2013-05-12 10:52:00,
2013-05-12 07:02:00,60.0,51.0,29.69,WSW,241,0.0,1.0,73,0.00,,,0.46,,2013-05-12 11:02:00,
2013-05-12 07:12:00,60.0,51.0,29.69,WSW,241,0.0,1.0,73,0.00,,,0.46,,2013-05-12 11:12:00,
2013-05-12 07:22:00,60.0,52.0,29.69,WSW,241,0.0,1.0,75,0.01,,,0.47,,2013-05-12 11:22:00,
2013-05-12 07:32:00,60.0,51.0,29.71,SSW,192,1.0,6.0,72,0.01,,,0.47,,2013-05-12 11:32:00,
2013-05-12 07:42:00,60.0,51.0,29.71,SSW,192,1.0,6.0,72,0.01,,,0.47,,2013-05-12 11:42:00,
2013-05-12 07:52:00,59.0,50.0,29.71,WSW,240,1.0,5.0,72,0.01,,,0.47,,2013-05-12 11:52:00,
2013-05-12 08:02:00,59.0,51.0,29.71,West,269,0.0,2.0,75,0.01,,,0.47,,2013-05-12 12:02:00,
2013-05-12 08:11:00,59.0,51.0,29.71,West,269,0.0,2.0,75,0.01,,,0.47,,2013-05-12 12:11:00,
2013-05-12 08:22:00,59.0,50.0,29.71,WSW,243,1.0,3.0,73,0.00,,,0.47,,2013-05-12 12:22:00,
2013-05-12 08:32:00,59.0,49.0,29.70,South,175,1.0,6.0,69,0.00,,,0.47,,2013-05-12 12:32:00,
2013-05-12 08:42:00,59.0,49.0,29.70,South,175,1.0,6.0,69,0.00,,,0.47,,2013-05-12 12:42:00,
2013-05-12 08:51:00,59.0,49.0,29.70,West,281,0.0,6.0,69,0.00,,,0.47,,2013-05-12 12:51:00,
2013-05-12 09:02:00,60.0,49.0,29.70,SSE,156,1.0,3.0,67,0.00,,,0.45,,2013-05-12 13:02:00,
2013-05-12 09:11:00,60.0,49.0,29.70,SSE,156,1.0,3.0,67,0.00,,,0.45,,2013-05-12 13:11:00,
2013-05-12 09:21:00,61.0,48.0,29.70,SW,218,0.0,6.0,63,0.00,,,0.44,,2013-05-12 13:21:00,
2013-05-12 09:32:00,62.0,48.0,29.70,SSW,206,2.0,5.0,60,0.00,,,0.43,,2013-05-12 13:32:00,
2013-05-12 09:42:00,62.0,48.0,29.70,SSW,206,2.0,5.0,60,0.00,,,0.43,,2013-05-12 13:42:00,
2013-05-12 09:52:00,62.0,47.0,29.70,North,0,0.0,3.0,59,0.00,,,0.43,,2013-05-12 13:52:00,
2013-05-12 10:01:00,64.0,48.0,29.70,SSE,166,0.0,3.0,57,0.00,,,0.43,,2013-05-12 14:01:00,
2013-05-12 10:11:00,64.0,48.0,29.70,SSE,166,0.0,3.0,57,0.00,,,0.43,,2013-05-12 14:11:00,
2013-05-12 10:21:00,64.0,47.0,29.69,SSW,195,1.0,3.0,55,0.00,,,0.43,,2013-05-12 14:21:00,
2013-05-12 10:32:00,64.0,47.0,29.69,WSW,239,2.0,7.0,53,0.00,,,0.43,,2013-05-12 14:32:00,
2013-05-12 10:42:00,65.0,47.0,29.69,SW,220,0.0,3.0,53,0.00,,,0.43,,2013-05-12 14:42:00,
2013-05-12 10:52:00,65.0,47.0,29.69,SW,220,0.0,3.0,53,0.00,,,0.43,,2013-05-12 14:52:00,
2013-05-12 11:01:00,66.0,47.0,29.69,South,191,0.0,5.0,51,0.00,,,0.43,,2013-05-12 15:01:00,
2013-05-12 11:11:00,66.0,47.0,29.69,South,191,0.0,5.0,51,0.00,,,0.43,,2013-05-12 15:11:00,
2013-05-12 11:21:00,66.0,47.0,29.68,SW,227,1.0,6.0,50,0.00,,,0.43,,2013-05-12 15:21:00,
2013-05-12 11:34:00,68.0,48.0,29.68,SW,234,1.0,3.0,48,0.00,,,0.43,,2013-05-12 15:34:00,
2013-05-12 11:42:00,68.0,48.0,29.68,SW,234,1.0,3.0,48,0.00,,,0.43,,2013-05-12 15:42:00,
2013-05-12 11:52:00,69.0,48.0,29.68,WSW,240,1.0,6.0,48,0.00,,,0.43,,2013-05-12 15:52:00,
2013-05-12 12:02:00,69.0,48.0,29.68,WSW,258,1.0,3.0,47,0.00,,,0.43,,2013-05-12 16:02:00,
2013-05-12 12:13:00,69.0,48.0,29.68,WSW,258,1.0,3.0,47,0.00,,,0.43,,2013-05-12 16:13:00,
2013-05-12 12:23:00,69.0,47.0,29.68,NNW,330,2.0,8.0,46,0.00,,,0.43,,2013-05-12 16:23:00,
2013-05-12 12:33:00,70.0,48.0,29.68,SSW,192,3.0,12.0,45,0.00,,,0.43,,2013-05-12 16:33:00,
2013-05-12 12:42:00,70.0,48.0,29.68,SSW,192,3.0,12.0,45,0.00,,,0.43,,2013-05-12 16:42:00,
2013-05-12 12:52:00,69.0,47.0,29.68,SSW,200,1.0,5.0,45,0.00,,,0.43,,2013-05-12 16:52:00,
2013-05-12 13:02:00,69.0,48.0,29.68,SSW,200,1.0,7.0,47,0.00,,,0.43,,2013-05-12 17:02:00,
2013-05-12 13:12:00,69.0,48.0,29.68,SSW,200,1.0,7.0,47,0.00,,,0.43,,2013-05-12 17:12:00,
2013-05-12 13:22:00,70.0,46.0,29.67,SSW,192,2.0,10.0,42,0.00,,,0.43,,2013-05-12 17:22:00,
2013-05-12 13:32:00,70.0,45.0,29.68,SSW,206,3.0,14.0,40,0.00,,,0.43,,2013-05-12 17:32:00,
2013-05-12 13:42:00,70.0,45.0,29.68,SSW,206,3.0,14.0,40,0.00,,,0.43,,2013-05-12 17:42:00,
2013-05-12 13:52:00,71.0,45.0,29.68,WNW,296,2.0,7.0,39,0.00,,,0.43,,2013-05-12 17:52:00,
2013-05-12 14:01:00,69.0,43.0,29.68,South,189,6.0,12.0,39,0.00,,,0.43,,2013-05-12 18:01:00,
2013-05-12 14:12:00,69.0,43.0,29.68,South,189,6.0,12.0,39,0.00,,,0.43,,2013-05-12 18:12:00,
2013-05-12 14:22:00,70.0,44.0,29.68,SSW,209,3.0,7.0,39,0.00,,,0.43,,2013-05-12 18:22:00,
2013-05-12 14:32:00,69.0,41.0,29.68,South,175,5.0,14.0,36,0.00,,,0.43,,2013-05-12 18:32:00,
2013-05-12 14:42:00,69.0,41.0,29.68,South,175,5.0,14.0,36,0.00,,,0.43,,2013-05-12 18:42:00,
2013-05-12 14:51:00,70.0,42.0,29.68,South,189,3.0,15.0,36,0.00,,,0.43,,2013-05-12 18:51:00,
2013-05-12 15:01:00,69.0,37.0,29.69,SSW,202,3.0,12.0,31,0.00,,,0.43,,2013-05-12 19:01:00,
2013-05-12 15:11:00,69.0,37.0,29.69,SSW,202,3.0,12.0,31,0.00,,,0.43,,2013-05-12 19:11:00,
2013-05-12 15:22:00,69.0,37.0,29.68,WSW,254,5.0,12.0,31,0.00,,,0.43,,2013-05-12 19:22:00,
2013-05-12 15:32:00,69.0,35.0,29.68,SSW,196,3.0,15.0,28,0.00,,,0.43,,2013-05-12 19:32:00,
2013-05-12 15:42:00,69.0,34.0,29.68,SW,216,1.0,10.0,27,0.00,,,0.43,,2013-05-12 19:42:00,
2013-05-12 15:52:00,69.0,34.0,29.68,SW,216,1.0,10.0,27,0.00,,,0.43,,2013-05-12 19:52:00,
2013-05-12 16:02:00,69.0,35.0,29.68,South,185,4.0,12.0,28,0.00,,,0.43,,2013-05-12 20:02:00,
2013-05-12 16:11:00,69.0,35.0,29.68,South,185,4.0,12.0,28,0.00,,,0.43,,2013-05-12 20:11:00,
2013-05-12 16:22:00,68.0,33.0,29.69,East,101,3.0,12.0,27,0.00,,,0.43,,2013-05-12 20:22:00,
2013-05-12 16:32:00,68.0,33.0,29.69,SSW,192,2.0,13.0,27,0.00,,,0.10,,2013-05-12 20:32:00,
2013-05-12 16:42:00,68.0,33.0,29.69,SSW,192,2.0,13.0,27,0.00,,,0.10,,2013-05-12 20:42:00,
2013-05-12 16:52:00,68.0,33.0,29.70,SW,215,3.0,12.0,27,0.00,,,0.06,,2013-05-12 20:52:00,
2013-05-12 17:01:00,67.0,29.0,29.70,SSW,198,5.0,18.0,24,0.00,,,0.02,,2013-05-12 21:01:00,
2013-05-12 17:11:00,67.0,29.0,29.70,SSW,198,5.0,18.0,24,0.00,,,0.02,,2013-05-12 21:11:00,
2013-05-12 17:21:00,68.0,32.0,29.70,SSW,207,2.0,17.0,26,0.00,,,0.02,,2013-05-12 21:21:00,
2013-05-12 17:33:00,66.0,32.0,29.72,South,185,7.0,17.0,28,0.00,,,0.02,,2013-05-12 21:33:00,
2013-05-12 17:42:00,66.0,32.0,29.72,South,185,7.0,17.0,28,0.00,,,0.02,,2013-05-12 21:42:00,
2013-05-12 17:53:00,66.0,32.0,29.72,SSW,206,5.0,13.0,28,0.00,,,0.02,,2013-05-12 21:53:00,
2013-05-12 18:02:00,65.0,32.0,29.73,SSW,206,2.0,9.0,29,0.00,,,0.02,,2013-05-12 22:02:00,
2013-05-12 18:12:00,65.0,32.0,29.73,SSW,206,2.0,9.0,29,0.00,,,0.02,,2013-05-12 22:12:00,
2013-05-12 18:23:00,64.0,30.0,29.74,South,191,4.0,10.0,28,0.00,,,0.02,,2013-05-12 22:23:00,
2013-05-12 18:33:00,64.0,31.0,29.75,South,185,5.0,13.0,29,0.00,,,0.02,,2013-05-12 22:33:00,
2013-05-12 18:42:00,64.0,31.0,29.75,South,185,5.0,13.0,29,0.00,,,0.02,,2013-05-12 22:42:00,
2013-05-12 18:52:00,63.0,30.0,29.76,South,173,4.0,16.0,29,0.00,,,0.02,,2013-05-12 22:52:00,
2013-05-12 19:02:00,62.0,30.0,29.76,South,190,4.0,12.0,30,0.00,,,0.02,,2013-05-12 23:02:00,
2013-05-12 19:12:00,62.0,30.0,29.76,South,190,4.0,12.0,30,0.00,,,0.02,,2013-05-12 23:12:00,
2013-05-12 19:22:00,62.0,29.0,29.77,SSW,194,5.0,14.0,28,0.00,,,0.02,,2013-05-12 23:22:00,
2013-05-12 19:32:00,61.0,29.0,29.78,ESE,112,2.0,8.0,29,0.00,,,0.02,,2013-05-12 23:32:00,
2013-05-12 19:42:00,61.0,29.0,29.78,ESE,112,2.0,8.0,29,0.00,,,0.02,,2013-05-12 23:42:00,
2013-05-12 19:52:00,61.0,29.0,29.79,South,175,2.0,12.0,29,0.00,,,0.02,,2013-05-12 23:52:00,
2013-05-12 20:01:00,60.0,28.0,29.80,SSW,203,5.0,13.0,29,0.00,,,0.02,,2013-05-13 00:01:00,
2013-05-12 20:11:00,60.0,28.0,29.80,SSW,203,5.0,13.0,29,0.00,,,0.02,,2013-05-13 00:11:00,
2013-05-12 20:22:00,60.0,28.0,29.81,SSW,196,3.0,12.0,30,0.00,,,0.02,,2013-05-13 00:22:00,
2013-05-12 20:32:00,60.0,28.0,29.82,SSW,209,2.0,10.0,30,0.00,,,0.02,,2013-05-13 00:32:00,
2013-05-12 20:42:00,60.0,28.0,29.82,SSW,209,2.0,10.0,30,0.00,,,0.02,,2013-05-13 00:42:00,
2013-05-12 20:51:00,59.0,29.0,29.83,SSW,210,2.0,7.0,32,0.00,,,0.02,,2013-05-13 00:51:00,
2013-05-12 21:01:00,59.0,30.0,29.83,North,353,2.0,9.0,33,0.00,,,0.02,,2013-05-13 01:01:00,
2013-05-12 21:11:00,59.0,30.0,29.83,North,353,2.0,9.0,33,0.00,,,0.02,,2013-05-13 01:11:00,
2013-05-12 21:22:00,59.0,31.0,29.84,SSW,193,1.0,8.0,34,0.00,,,0.02,,2013-05-13 01:22:00,
2013-05-12 21:32:00,58.0,31.0,29.85,North,350,2.0,6.0,36,0.00,,,0.02,,2013-05-13 01:32:00,
2013-05-12 21:42:00,58.0,31.0,29.85,North,350,2.0,6.0,36,0.00,,,0.02,,2013-05-13 01:42:00,
2013-05-12 21:52:00,58.0,33.0,29.86,SE,134,0.0,5.0,38,0.00,,,0.02,,2013-05-13 01:52:00,
2013-05-12 22:02:00,57.0,33.0,29.88,SE,140,1.0,10.0,40,0.00,,,0.02,,2013-05-13 02:02:00,
2013-05-12 22:11:00,57.0,33.0,29.88,SE,140,1.0,10.0,40,0.00,,,0.02,,2013-05-13 02:11:00,
2013-05-12 22:21:00,56.0,30.0,29.89,South,189,2.0,10.0,37,0.00,,,0.02,,2013-05-13 02:21:00,
2013-05-12 22:32:00,56.0,32.0,29.90,SSW,198,1.0,12.0,40,0.00,,,0.02,,2013-05-13 02:32:00,
2013-05-12 22:42:00,56.0,32.0,29.90,SSW,198,1.0,12.0,40,0.00,,,0.02,,2013-05-13 02:42:00,
2013-05-12 22:52:00,55.0,31.0,29.90,North,351,2.0,12.0,40,0.00,,,0.02,,2013-05-13 02:52:00,
2013-05-12 23:02:00,55.0,32.0,29.91,South,191,2.0,8.0,41,0.00,,,0.02,,2013-05-13 03:02:00,
2013-05-12 23:11:00,55.0,32.0,29.91,South,191,2.0,8.0,41,0.00,,,0.02,,2013-05-13 03:11:00,
2013-05-12 23:21:00,55.0,32.0,29.91,SSE,162,1.0,7.0,41,0.00,,,0.02,,2013-05-13 03:21:00,
2013-05-12 23:33:00,54.0,30.0,29.92,SW,226,1.0,7.0,40,0.00,,,0.02,,2013-05-13 03:33:00,
2013-05-12 23:42:00,54.0,30.0,29.92,SW,226,1.0,7.0,40,0.00,,,0.02,,2013-05-13 03:42:00,
2013-05-12 23:53:00,54.0,31.0,29.92,SSW,196,1.0,3.0,41,0.00,,,0.02,,2013-05-13 03:53:00,